DW6267 Weather Reports


Display with metric or nautical units.
time (UTC)temp
F
wind
direction
speed
MPH
gust
MPH
rain 1hr
in
rain 24hr
in
rain mn
in
humidity
%
barometer
mb
20260904230336 62 142 1.0 0.0 0.00 0.00 0.01 47 1010.9
20260904220359 62 198 1.0 0.0 0.00 0.00 0.01 43 1011.0
20260904210343 60 100 1.0 0.0 0.00 0.00 0.01 46 1011.1
20260904200342 60 52 0.0 0.0 0.00 0.00 0.01 57 1010.7
20260904190339 60 68 3.0 0.0 0.00 0.00 0.01 48 1010.5
20260904180400 58 79 0.0 0.0 0.00 0.00 0.01 56 1010.6
20260904170345 51 73 0.0 0.0 0.00 0.00 0.01 83 1010.2
20260904160351 46 73 0.0 0.0 0.00 0.00 0.01 100 1010.5
20260904150412 43 73 0.0 0.0 0.00 0.00 0.01 100 1010.5
20260904140335 44 73 0.0 0.0 0.00 0.00 0.01 100 1009.5
20260904130346 44 73 0.0 0.0 0.00 0.00 0.01 100 1009.8
20260904120346 44 73 0.0 0.0 0.00 0.00 0.00 100 1009.6
20260904110345 44 73 0.0 0.0 0.00 0.00 0.00 100 1008.4
20260904100344 44 73 0.0 0.0 0.00 0.00 0.00 100 1007.7
20260904090352 44 73 0.0 0.0 0.00 0.00 0.00 100 1008.2
20260904080336 45 73 0.0 0.0 0.00 0.00 0.00 100 1008.5
20260904070352 45 73 0.0 0.0 0.00 0.00 0.00 100 1008.4
20260904060338 46 73 0.0 0.0 0.00 0.00 0.06 100 1008.1
20260904050345 47 73 0.0 0.0 0.00 0.00 0.06 100 1007.6
20260904040343 49 73 0.0 0.0 0.00 0.00 0.05 96 1008.6
20260904030343 51 77 0.0 0.0 0.00 0.00 0.01 76 1007.2
20260904020355 55 75 0.0 0.0 0.00 0.00 0.01 63 1006.9
20260904010336 57 306 1.0 0.0 0.00 0.00 0.01 61 1005.8
20260904000342 57 287 0.0 0.0 0.00 0.00 0.01 69 1006.3